Retour au catalogue

STARLINK-37679

ActifCommunicationsSSO
NORAD 69229·PAYLOAD·🇺🇸 United States

Lancé May 26, 2026 depuis Vandenberg Space Force Base

Loading…

Prochains Passages (prochaines 24 heures)

TLE

FraisSource: CelesTrak SupGP

Époque: Sep 15, 2026, 04:20 UTC

1 69229C 26115U   26258.18104167 -.00058631  00000+0 -18203-2 0  2582
2 69229  97.2832 274.3808 0001523  96.5202  36.2580 15.33463854    15

Suivez STARLINK-37679 en temps réel avec AllMySat

Download on the App Store